Regional Weather Roundup
Issued by NWS

Home | Current Version | Previous Version | Graphics & Text | Print | Product List | Glossary On
Versions: 1 2 3 4 5 6 7 8 9 10 11 12 13 14 15 16 17 18 19 20 21 22 23 24 25 26 27 28 29 30 31 32 33 34 35 36 37 38 39 40 41 42 43 44 45 46 47 48 49 50
000
ASUS44 KMEG 071800
RWRTN
TENNESSEE HOURLY STATE WEATHER ROUNDUP
NATIONAL WEATHER SERVICE MEMPHIS TN
100 PM CDT TUE JUL 07 2015

TNZ002-004-019-021-049-052-054-088>092-071900-
WEST TENNESSEE

CITY           SKY/WX    TMP DP  RH WIND       PRES   REMARKS
MEMPHIS INTL   MOSUNNY   89  73  59 SW13G21   30.04F HX  97
NWS MEMPHIS      N/A     88 N/A N/A MISG        N/A
JACKSON        PTSUNNY   88  73  61 SW17G25   30.05F HX  95
DYERSBURG        N/A    N/A N/A N/A MISG        N/A
PARIS          MOSUNNY   84  72  65 SW15      30.04S
LEXINGTON      MOSUNNY   86  72  62 SW15      30.05F HX  92
$$

TNZ008-025-027-028-033-062-065-066-071900-
NORTH MIDDLE TENNESSEE

CITY           SKY/WX    TMP DP  RH WIND       PRES   REMARKS
NASHVILLE      PTSUNNY   87  71  58 SW14G22   30.07F HX  93
CLARKSVILLE    CLOUDY    85  70  60 SW14G23   30.03S
COOKEVILLE     MOSUNNY   88  75  66 SW14      30.10F HX  97
CROSSVILLE     PTSUNNY   83  67  58 SW10G18   30.17F
$$

TNZ061-075-076-078-094-096-097-071900-
SOUTH MIDDLE TENNESSEE

CITY           SKY/WX    TMP DP  RH WIND       PRES   REMARKS
FAYETTEVILLE   MOSUNNY   84  70  61 SW12      30.13F
TULLAHOMA      MOSUNNY   86  70  58 SW14      30.14F HX  90
WINCHESTER     SUNNY     88  72  58 SW12      30.13F HX  94
SHELBYVILLE    SUNNY     90  75  62 SW13        N/A  HX 100
$$

TNZ017-018-042-046-047-071900-
NORTHEAST TENNESSEE

CITY           SKY/WX    TMP DP  RH WIND       PRES   REMARKS
TRI CITIES     MOSUNNY   84  66  54 SW15      30.15F
ELIZABETHTON   PTCLDY    82  66  57 VRB5      30.16F
$$

TNZ012-013-036-069-073-074-071900-
CENTRAL EAST TENNESSEE

CITY           SKY/WX    TMP DP  RH WIND       PRES   REMARKS
KNOXVILLE      MOSUNNY   85  69  58 S12G20    30.12F
OAK RIDGE      PTSUNNY   86  71  60 S7        30.12F HX  91
GATLINBURG       N/A     88  68  51 W7        30.12F HX  91
$$

TNZ083-085-099-071900-
SOUTHEAST TENNESSEE

CITY           SKY/WX    TMP DP  RH WIND       PRES   REMARKS
CHATTANOOGA    MOSUNNY   89  69  51 SW10      30.13F HX  93
$$

SKY/WX REPORTED AS FAIR MEANS FEW OR NO CLOUDS BELOW
12 THOUSAND FEET.




USA.gov is the U.S. government's official web portal to all federal, state and local government web resources and services.